TimeCET,TemperatureF,Dew PointF,Humidity,Sea Level PressureIn,VisibilityMPH,Wind Direction,Wind SpeedMPH,Gust SpeedMPH,PrecipitationIn,Events,Conditions,WindDirDegrees,DateUTC
12:00 AM,33,30,84,29.64,5,ESE,4.5,,,,Mist,120,2014-03-01 23:00:00
12:00 AM,32.0,30.2,93,29.56,5.0,Variable,1.2,-,N/A,,Unknown,0,2014-03-01 23:00:00
12:30 AM,32.0,30.2,93,29.56,5.0,SE,3.5,-,N/A,,Unknown,140,2014-03-01 23:30:00
1:00 AM,33,30,83,29.64,5,East,4.5,,,,Mist,90,2014-03-02 00:00:00
1:00 AM,33.8,30.2,87,29.56,5.0,Calm,Calm,-,N/A,,Unknown,0,2014-03-02 00:00:00
1:30 AM,33.8,32.0,93,29.56,5.0,Calm,Calm,-,N/A,,Unknown,0,2014-03-02 00:30:00
2:00 AM,30,28,90,29.65,4,East,2.2,,,,Mist,90,2014-03-02 01:00:00
2:00 AM,30.2,28.4,93,29.56,4.3,Variable,2.3,-,N/A,,Unknown,0,2014-03-02 01:00:00
2:30 AM,32.0,30.2,93,29.56,4.3,SSW,2.3,-,N/A,,Unknown,210,2014-03-02 01:30:00
3:00 AM,31,29,92,29.65,4,,2.2,,,,Mist,,2014-03-02 02:00:00
3:00 AM,30.2,30.2,100,29.56,4.3,Variable,1.2,-,N/A,,Unknown,0,2014-03-02 02:00:00
3:30 AM,32.0,30.2,93,29.56,3.7,East,3.5,-,N/A,,Unknown,90,2014-03-02 02:30:00
4:00 AM,33,31,92,29.64,4,East,6.7,,,,Mist,80,2014-03-02 03:00:00
4:00 AM,33.8,32.0,93,29.56,5.0,East,4.6,-,N/A,,Unknown,100,2014-03-02 03:00:00
4:30 AM,30.2,28.4,93,29.59,3.7,Variable,2.3,-,N/A,,Unknown,0,2014-03-02 03:30:00
5:00 AM,30,28,91,29.67,4,East,4.5,,,,Mist,100,2014-03-02 04:00:00
5:00 AM,30.2,28.4,93,29.59,4.3,ESE,6.9,-,N/A,,Unknown,110,2014-03-02 04:00:00
5:30 AM,32.0,32.0,100,29.59,4.3,ESE,3.5,-,N/A,,Unknown,110,2014-03-02 04:30:00
6:00 AM,33,32,93,29.66,3,East,6.7,,,,Mist,100,2014-03-02 05:00:00
6:00 AM,33.8,32.0,93,29.59,3.1,ESE,5.8,-,N/A,,Partly Cloudy,110,2014-03-02 05:00:00
6:30 AM,32.0,32.0,100,29.59,2.5,ESE,6.9,-,N/A,,Mist,110,2014-03-02 05:30:00
7:00 AM,31,29,92,29.68,2,East,4.5,,,,Mist,100,2014-03-02 06:00:00
7:00 AM,30.2,28.4,93,29.62,2.2,ESE,6.9,-,N/A,,Partly Cloudy,110,2014-03-02 06:00:00
7:30 AM,32.0,30.2,93,29.62,2.2,East,6.9,-,N/A,,Partly Cloudy,100,2014-03-02 06:30:00
8:00 AM,33,32,93,29.69,2,SE,4.5,,,,Mist,130,2014-03-02 07:00:00
8:00 AM,32.0,32.0,100,29.62,1.7,ESE,5.8,-,N/A,,Partly Cloudy,110,2014-03-02 07:00:00
8:30 AM,33.8,33.8,100,29.65,1.9,ESE,3.5,-,N/A,,Partly Cloudy,120,2014-03-02 07:30:00
9:00 AM,35,34,95,29.71,2,WSW,2.2,,,,Mist,250,2014-03-02 08:00:00
9:00 AM,35.6,33.8,93,29.65,2.5,WSW,3.5,-,N/A,,Scattered Clouds,240,2014-03-02 08:00:00
9:30 AM,39.2,37.4,93,29.65,3.7,Variable,1.2,-,N/A,,Scattered Clouds,0,2014-03-02 08:30:00
10:00 AM,42,36,73,29.70,5,South,4.5,,,,Mist,190,2014-03-02 09:00:00
10:00 AM,41.0,37.4,87,29.65,5.0,South,4.6,-,N/A,,Partly Cloudy,180,2014-03-02 09:00:00
10:30 AM,42.8,37.4,81,29.65,5.6,WSW,4.6,-,N/A,,Partly Cloudy,240,2014-03-02 09:30:00
11:00 AM,45,37,64,29.69,6,SSW,4.5,,,,Partly Cloudy,200,2014-03-02 10:00:00
11:00 AM,44.6,37.4,76,29.65,6.2,SSW,5.8,-,N/A,,Scattered Clouds,210,2014-03-02 10:00:00
11:30 AM,46.4,37.4,71,29.65,6.2,SSE,6.9,-,N/A,,Scattered Clouds,160,2014-03-02 10:30:00
12:00 PM,48,36,53,29.69,7,SSE,4.5,,,,Scattered Clouds,150,2014-03-02 11:00:00
12:00 PM,48.2,37.4,66,29.65,6.2,South,3.5,-,N/A,,Partly Cloudy,170,2014-03-02 11:00:00
12:30 PM,50.0,37.4,62,29.65,6.2,SE,3.5,-,N/A,,Scattered Clouds,140,2014-03-02 11:30:00
1:00 PM,51,37,47,29.67,9,SSE,4.5,,,,Scattered Clouds,150,2014-03-02 12:00:00
1:00 PM,50.0,35.6,58,29.65,6.2,SE,4.6,-,N/A,,Partly Cloudy,130,2014-03-02 12:00:00
1:30 PM,51.8,37.4,58,29.65,6.2,SE,4.6,-,N/A,,Scattered Clouds,140,2014-03-02 12:30:00
2:00 PM,51,36,46,29.66,9,South,4.5,,,,Partly Cloudy,170,2014-03-02 13:00:00
2:00 PM,50.0,35.6,58,29.65,6.2,ENE,3.5,-,N/A,,Scattered Clouds,60,2014-03-02 13:00:00
2:30 PM,51.8,37.4,58,29.62,6.2,East,4.6,-,N/A,,Scattered Clouds,80,2014-03-02 13:30:00
3:00 PM,51,36,45,29.65,9,ESE,4.5,,,,Partly Cloudy,110,2014-03-02 14:00:00
3:00 PM,50.0,35.6,58,29.62,6.2,ENE,4.6,-,N/A,,Scattered Clouds,70,2014-03-02 14:00:00
3:30 PM,51.8,37.4,58,29.62,6.2,NE,5.8,-,N/A,,Partly Cloudy,50,2014-03-02 14:30:00
4:00 PM,50,37,50,29.65,9,East,6.7,,,,Scattered Clouds,80,2014-03-02 15:00:00
4:00 PM,50.0,35.6,58,29.62,6.2,ENE,5.8,-,N/A,,Partly Cloudy,60,2014-03-02 15:00:00
4:30 PM,48.2,35.6,62,29.62,6.2,NE,8.1,-,N/A,,Partly Cloudy,40,2014-03-02 15:30:00
5:00 PM,49,37,52,29.65,7,ENE,6.7,,,,Scattered Clouds,60,2014-03-02 16:00:00
5:00 PM,50.0,37.4,62,29.62,-9999.0,NNE,4.6,-,N/A,,Clear,30,2014-03-02 16:00:00
5:30 PM,46.4,35.6,66,29.62,-9999.0,North,4.6,-,N/A,,Clear,360,2014-03-02 16:30:00
6:00 PM,43,35,63,29.67,5,North,6.7,,,,Mist,350,2014-03-02 17:00:00
6:00 PM,42.8,35.6,76,29.62,5.0,NW,4.6,-,N/A,,Unknown,320,2014-03-02 17:00:00
6:30 PM,41.0,35.6,81,29.62,4.3,NNW,4.6,-,N/A,,Unknown,330,2014-03-02 17:30:00
7:00 PM,39,34,77,29.67,4,NNW,4.5,,,,Mist,340,2014-03-02 18:00:00
7:00 PM,39.2,33.8,81,29.62,4.3,NW,3.5,-,N/A,,Unknown,320,2014-03-02 18:00:00
7:30 PM,39.2,35.6,87,29.62,4.3,Variable,2.3,-,N/A,,Unknown,0,2014-03-02 18:30:00
8:00 PM,38,35,85,29.66,4,NNW,2.2,,,,Mist,340,2014-03-02 19:00:00
8:00 PM,39.2,35.6,87,29.62,4.3,Variable,2.3,-,N/A,,Unknown,0,2014-03-02 19:00:00
8:30 PM,37.4,33.8,87,29.62,4.3,Variable,2.3,-,N/A,,Unknown,0,2014-03-02 19:30:00
9:00 PM,36,33,87,29.66,4,West,2.2,,,,Mist,280,2014-03-02 20:00:00
9:00 PM,37.4,33.8,87,29.59,3.7,WNW,3.5,-,N/A,,Unknown,290,2014-03-02 20:00:00
9:14 PM,33.8,32.0,93,29.59,2.8,West,4.6,-,N/A,,Mist,260,2014-03-02 20:14:00
9:30 PM,35.6,33.8,93,29.59,2.8,SW,3.5,-,N/A,,Mist,230,2014-03-02 20:30:00
10:00 PM,35,33,88,29.65,3,SW,4.5,,,,Mist,230,2014-03-02 21:00:00
10:00 PM,35.6,32.0,87,29.59,3.1,SW,3.5,-,N/A,,Mist,230,2014-03-02 21:00:00
10:30 PM,33.8,32.0,93,29.59,2.8,SSW,3.5,-,N/A,,Mist,210,2014-03-02 21:30:00
11:00 PM,35,33,90,29.64,3,SSW,4.5,,,,Mist,200,2014-03-02 22:00:00
11:00 PM,35.6,33.8,93,29.56,2.8,Variable,1.2,-,N/A,,Mist,0,2014-03-02 22:00:00
11:30 PM,35.6,33.8,93,29.56,2.8,Variable,2.3,-,N/A,,Mist,0,2014-03-02 22:30:00